Date String (YYYY-MM-DD hh:mm:ss) UTC,Instrument flags,Ambient pressure (hPa),Sample flow (lpm),Bypass flow (lpm),Sample temperature (°C),Ambient temperature (°C),ASC tube jacket temperature (°C),LED temperature (°C),Box temperature (°C),Sample RH (%),Span deviation,Mass concentration (μg/m³),Mass concentration (μg/m³),Mass concentration (μg/m³)
DateTimeUTC,F1_M11,P_M11,Q1_M11,Q2_M11,T1_M11,T2_M11,T3_M11,T4_M11,T5_M11,U1_M11,ZSPAN_M11,X0_M11,X2_M11,X1_M11
2022-10-05 11:00:00,,0832.7,4.98,0.00,28.9,27.4,00.0,37.7,30.8,20.7,0000.0,0008.60,0005.97,0005.74
2022-10-05 11:01:00,,0832.7,5.00,0.00,28.9,27.4,00.0,37.7,30.8,20.7,0000.0,0008.60,0005.95,0005.73
2022-10-05 11:02:00,,0832.7,5.00,0.00,28.9,27.4,00.0,37.7,30.8,20.7,0000.0,0008.64,0005.94,0005.72
2022-10-05 11:03:00,,0832.6,4.99,0.00,28.9,27.3,00.0,37.7,30.8,20.6,0000.0,0008.66,0005.92,0005.70
2022-10-05 11:04:00,,0832.7,5.00,0.00,28.9,27.3,00.0,37.7,30.8,20.6,0000.0,0008.71,0005.92,0005.70
2022-10-05 11:05:00,,0832.7,5.01,0.00,28.9,27.4,00.0,37.7,30.8,20.6,0000.0,0008.68,0005.88,0005.65
2022-10-05 11:06:00,,0832.7,5.00,0.00,28.9,27.4,00.0,37.7,30.8,20.6,0000.0,0008.59,0005.84,0005.62
2022-10-05 11:07:00,,0832.7,4.99,0.00,28.9,27.3,00.0,37.7,30.8,20.6,0000.0,0008.57,0005.82,0005.59
2022-10-05 11:08:00,,0832.7,5.01,0.00,28.9,27.3,00.0,37.7,30.8,20.6,0000.0,0008.53,0005.78,0005.57
2022-10-05 11:09:00,,0832.7,5.00,0.00,28.9,27.3,00.0,37.7,30.8,20.6,0000.0,0008.60,0005.78,0005.55
2022-10-05 11:10:00,,0832.7,4.99,0.00,28.9,27.3,00.0,37.7,30.7,20.5,0000.0,0008.54,0005.74,0005.54
2022-10-05 11:11:00,,0832.7,5.00,0.00,28.9,27.3,00.0,37.7,30.8,20.5,0000.0,0008.52,0005.72,0005.51
2022-10-05 11:12:00,,0832.7,5.01,0.00,28.9,27.3,00.0,37.7,30.7,20.7,0000.0,0008.55,0005.72,0005.51
2022-10-05 11:13:00,,0832.8,4.99,0.00,28.9,27.3,00.0,37.7,30.7,20.8,0000.0,0008.53,0005.73,0005.52
2022-10-05 11:14:00,,0832.7,5.02,0.00,28.9,27.3,00.0,37.7,30.7,21.0,0000.0,0008.54,0005.75,0005.51
2022-10-05 11:15:00,,0832.7,4.99,0.00,28.9,27.3,00.0,37.6,30.8,21.0,0000.0,0008.52,0005.76,0005.50
2022-10-05 11:16:00,,0832.7,5.00,0.00,28.9,27.3,00.0,37.6,30.7,21.1,0000.0,0008.51,0005.75,0005.49
2022-10-05 11:17:00,,0832.7,5.01,0.00,28.9,27.3,00.0,37.6,30.7,21.1,0000.0,0008.47,0005.74,0005.50
2022-10-05 11:18:00,,0832.8,4.99,0.00,28.9,27.3,00.0,37.6,30.8,21.3,0000.0,0008.46,0005.74,0005.50
2022-10-05 11:19:00,,0832.8,5.01,0.00,28.9,27.3,00.0,37.6,30.8,21.2,0000.0,0008.45,0005.76,0005.50
2022-10-05 11:20:00,,0832.8,4.99,0.00,28.9,27.3,00.0,37.6,30.8,21.2,0000.0,0008.37,0005.75,0005.50
2022-10-05 11:21:00,,0832.7,5.01,0.00,28.9,27.3,00.0,37.6,30.8,20.8,0000.0,0008.41,0005.76,0005.49
2022-10-05 11:22:00,,0832.7,5.01,0.00,28.9,27.3,00.0,37.6,30.8,20.6,0000.0,0008.96,0005.78,0005.49
2022-10-05 11:23:00,,0832.8,4.99,0.00,28.9,27.3,00.0,37.6,30.8,20.5,0000.0,0009.30,0005.77,0005.50
2022-10-05 11:24:00,,0832.8,5.01,0.00,28.9,27.3,00.0,37.6,30.7,20.5,0000.0,0009.69,0005.76,0005.49
2022-10-05 11:25:00,,0832.8,5.01,0.00,28.9,27.3,00.0,37.6,30.7,20.7,0000.0,0009.66,0005.74,0005.49
2022-10-05 11:26:00,,0832.7,4.99,0.00,28.9,27.3,00.0,37.6,30.7,20.8,0000.0,0009.65,0005.72,0005.48
2022-10-05 11:27:00,,0832.7,5.01,0.00,28.9,27.3,00.0,37.6,30.7,20.6,0000.0,0009.72,0005.72,0005.47
2022-10-05 11:28:00,,0832.8,4.99,0.00,28.9,27.3,00.0,37.6,30.7,20.5,0000.0,0009.79,0005.73,0005.47
2022-10-05 11:29:00,,0832.8,5.01,0.00,28.9,27.3,00.0,37.6,30.7,20.4,0000.0,0009.85,0005.73,0005.47
2022-10-05 11:30:00,,0832.7,4.99,0.00,28.9,27.2,00.0,37.6,30.7,20.5,0000.0,0009.82,0005.72,0005.47
2022-10-05 11:31:00,,0832.8,5.01,0.00,28.8,27.2,00.0,37.6,30.7,20.4,0000.0,0009.83,0005.72,0005.48
2022-10-05 11:32:00,,0832.8,5.00,0.00,28.8,27.2,00.0,37.6,30.7,20.3,0000.0,0009.79,0005.72,0005.48
2022-10-05 11:33:00,,0832.8,4.99,0.00,28.8,27.2,00.0,37.6,30.7,20.3,0000.0,0009.17,0005.67,0005.46
2022-10-05 11:34:00,,0832.8,5.01,0.00,28.8,27.2,00.0,37.6,30.7,20.3,0000.0,0008.89,0005.66,0005.44
2022-10-05 11:35:00,,0832.8,5.01,0.00,28.8,27.2,00.0,37.6,30.7,20.2,0000.0,0008.40,0005.65,0005.42
2022-10-05 11:36:00,,0832.8,4.99,0.00,28.8,27.2,00.0,37.6,30.7,20.3,0000.0,0008.34,0005.62,0005.40
2022-10-05 11:37:00,,0832.8,5.01,0.00,28.8,27.2,00.0,37.6,30.7,20.2,0000.0,0008.29,0005.60,0005.39
2022-10-05 11:38:00,,0832.8,5.00,0.00,28.8,27.2,00.0,37.6,30.7,20.4,0000.0,0008.16,0005.55,0005.36
2022-10-05 11:39:00,,0832.8,4.98,0.00,28.8,27.2,00.0,37.6,30.7,20.4,0000.0,0008.06,0005.52,0005.34
2022-10-05 11:40:00,,0832.8,5.01,0.00,28.8,27.2,00.0,37.6,30.6,20.3,0000.0,0008.07,0005.51,0005.33
2022-10-05 11:41:00,,0832.8,5.01,0.00,28.8,27.2,00.0,37.6,30.7,20.2,0000.0,0008.07,0005.50,0005.32
2022-10-05 11:42:00,,0832.8,4.99,0.00,28.8,27.2,00.0,37.6,30.7,20.3,0000.0,0008.04,0005.49,0005.31
2022-10-05 11:43:00,,0832.8,5.01,0.00,28.8,27.2,00.0,37.6,30.6,20.5,0000.0,0008.09,0005.49,0005.31
2022-10-05 11:44:00,,0832.8,5.01,0.00,28.8,27.2,00.0,37.6,30.6,20.4,0000.0,0008.15,0005.52,0005.33
2022-10-05 11:45:00,,0832.8,4.99,0.00,28.8,27.2,00.0,37.6,30.6,20.4,0000.0,0008.15,0005.53,0005.34
2022-10-05 11:46:00,,0832.8,5.01,0.00,28.8,27.2,00.0,37.5,30.6,20.4,0000.0,0008.08,0005.53,0005.35
2022-10-05 11:47:00,,0832.8,4.99,0.00,28.8,27.2,00.0,37.5,30.6,20.5,0000.0,0008.16,0005.55,0005.36
2022-10-05 11:48:00,,0832.8,5.00,0.00,28.8,27.1,00.0,37.5,30.6,20.5,0000.0,0008.18,0005.56,0005.37
2022-10-05 11:49:00,,0832.7,5.01,0.00,28.7,27.1,00.0,37.5,30.6,20.5,0000.0,0008.23,0005.59,0005.39
2022-10-05 11:50:00,,0832.7,4.99,0.00,28.7,27.1,00.0,37.5,30.6,20.5,0000.0,0008.24,0005.60,0005.40
2022-10-05 11:51:00,,0832.7,5.01,0.00,28.7,27.1,00.0,37.5,30.6,20.5,0000.0,0008.22,0005.63,0005.41
2022-10-05 11:52:00,,0832.7,5.00,0.00,28.7,27.1,00.0,37.5,30.6,20.5,0000.0,0008.16,0005.61,0005.41
2022-10-05 11:53:00,,0832.7,4.98,0.00,28.7,27.1,00.0,37.5,30.6,20.5,0000.0,0008.20,0005.62,0005.40
2022-10-05 11:54:00,,0832.7,5.01,0.00,28.7,27.1,00.0,37.5,30.6,20.5,0000.0,0008.21,0005.62,0005.40
2022-10-05 11:55:00,,0832.7,5.00,0.00,28.7,27.1,00.0,37.5,30.6,20.3,0000.0,0008.18,0005.61,0005.39
2022-10-05 11:56:00,,0832.7,4.99,0.00,28.7,27.1,00.0,37.5,30.6,20.3,0000.0,0008.15,0005.59,0005.37
2022-10-05 11:57:00,,0832.8,5.00,0.00,28.7,27.1,00.0,37.5,30.5,20.3,0000.0,0008.12,0005.57,0005.36
2022-10-05 11:58:00,,0832.7,5.01,0.00,28.7,27.1,00.0,37.5,30.5,20.3,0000.0,0008.06,0005.56,0005.35
2022-10-05 11:59:00,,0832.7,4.98,0.00,28.7,27.1,00.0,37.5,30.6,20.3,0000.0,0008.05,0005.56,0005.34
